Location: Unspecified
(38.9820°N, 94.4650°W)
Time: 08:11:18
(UTC-05:00)

CZ-3 Stage 3 - Visible Passes

Search period start: 07 July 2015 00:00
Search period end: 17 July 2015 00:00
Orbit: 428 x 34798 km, 31.0° (Epoch: 05 July)

Date Brightness Start Highest point End Pass type
(mag) Time Alt. Az. Time Alt. Az. Time Alt. Az.
08 Jul 6.3 04:56:03 10° SSW 05:21:28 60° SE 14:18:32 10° SSE visible
09 Jul 6.9 01:39:39 10° ESE 01:40:33 10° E 10:07:14 10° ESE visible
11 Jul 6.3 04:51:01 12° SW 05:15:57 61° SE 14:12:57 10° SSE visible
12 Jul 6.8 01:29:52 10° ESE 01:34:36 12° ESE 10:02:56 10° ESE visible
14 Jul 6.3 04:46:02 14° SW 05:10:28 62° SE 14:07:20 10° SSE visible
15 Jul 6.8 01:21:53 10° ESE 01:28:38 13° ESE 09:58:32 10° ESE visible
